When you browse on this site, cookies collect data to enhance your experience and personalize the content and advertising you see.
Visit our Privacy Policy to learn more. By continuing to use the site, you agree to this use of cookies and data.
  • In Hungary
  • List of Countries
  • For 7 days
  • Water Temperature
  • Satellite Maps
  • Weather Map
  • News
  • Weather Widgets
  • user-avatar
    Login

    Hourly Weather Tokarnia

    Today, 20 May, Monday

    Time Temperature Precipitation Wind Pressure Humidity
    00:00 +14°C° 0 mm 3 mps 733 mmHg 92%
    01:00 +14°C° 0 mm 3 mps 733 mmHg 93%
    02:00 +13°C° 0 mm 3 mps 733 mmHg 94%
    03:00 +13°C° 0 mm 3 mps 733 mmHg 94%
    04:00 +13°C° 0 mm 3 mps 732 mmHg 95%
    05:00 +15°C° 0 mm 4 mps 732 mmHg 91%
    06:00 +16°C° 0 mm 5 mps 732 mmHg 88%
    07:00 +19°C° 0 mm 6 mps 732 mmHg 85%
    08:00 +20°C° 0 mm 6 mps 732 mmHg 76%
    09:00 +22°C° 0 mm 6 mps 732 mmHg 68%
    10:00 +24°C° 0 mm 7 mps 732 mmHg 60%
    11:00 +24°C° 0 mm 7 mps 732 mmHg 58%
    12:00 +26°C° 0 mm 7 mps 732 mmHg 56%
    13:00 +27°C° 0 mm 7 mps 732 mmHg 54%
    14:00 +26°C° 0 mm 7 mps 732 mmHg 55%
    15:00 +26°C° 0 mm 6 mps 732 mmHg 57%
    16:00 +24°C° 0 mm 6 mps 732 mmHg 58%
    17:00 +22°C° 0.1 mm 5 mps 732 mmHg 66%
    18:00 +21°C° 0.1 mm 4 mps 732 mmHg 73%
    19:00 +19°C° 0.1 mm 3 mps 732 mmHg 80%
    20:00 +18°C° 0 mm 3 mps 732 mmHg 83%
    21:00 +17°C° 0 mm 3 mps 732 mmHg 86%
    22:00 +16°C° 0 mm 3 mps 733 mmHg 88%
    23:00 +15°C° 0 mm 2 mps 733 mmHg 89%

    Tomorrow, 21 May, Tuesday

    Time Temperature Precipitation Wind Pressure Humidity
    00:00 +14°C° 0 mm 2 mps 733 mmHg 90%
    01:00 +14°C° 0 mm 1 mps 733 mmHg 91%
    02:00 +14°C° 0 mm 1 mps 733 mmHg 92%
    03:00 +14°C° 0 mm 1 mps 732 mmHg 92%
    04:00 +13°C° 0 mm 1 mps 732 mmHg 92%
    05:00 +14°C° 0.2 mm 1 mps 732 mmHg 91%
    06:00 +15°C° 0.2 mm 1 mps 733 mmHg 90%
    07:00 +16°C° 0.2 mm 2 mps 733 mmHg 88%
    08:00 +16°C° 0.4 mm 2 mps 733 mmHg 88%
    09:00 +16°C° 0.4 mm 2 mps 732 mmHg 87%
    10:00 +17°C° 0.4 mm 3 mps 732 mmHg 87%
    11:00 +17°C° 0.5 mm 3 mps 732 mmHg 84%
    12:00 +18°C° 0.5 mm 3 mps 732 mmHg 81%
    13:00 +19°C° 0.5 mm 4 mps 732 mmHg 78%
    14:00 +18°C° 1.3 mm 4 mps 731 mmHg 81%
    15:00 +17°C° 1.3 mm 4 mps 731 mmHg 85%
    16:00 +16°C° 1.3 mm 5 mps 731 mmHg 88%
    17:00 +15°C° 2.2 mm 4 mps 731 mmHg 90%
    18:00 +14°C° 2.2 mm 4 mps 731 mmHg 91%
    19:00 +14°C° 2.2 mm 4 mps 731 mmHg 93%
    20:00 +14°C° 1 mm 4 mps 731 mmHg 92%
    21:00 +14°C° 1 mm 5 mps 731 mmHg 92%
    22:00 +14°C° 1 mm 6 mps 731 mmHg 92%
    23:00 +14°C° 0.5 mm 6 mps 731 mmHg 92%

    Day after tomorrow, 22 May, Wednesday

    Time Temperature Precipitation Wind Pressure Humidity
    00:00 +13°C° 0.5 mm 5 mps 731 mmHg 93%
    01:00 +13°C° 0.5 mm 5 mps 731 mmHg 93%
    02:00 +13°C° 0.2 mm 5 mps 731 mmHg 94%
    03:00 +13°C° 0.2 mm 5 mps 731 mmHg 94%
    04:00 +13°C° 0.2 mm 5 mps 731 mmHg 94%
    05:00 +13°C° 0.1 mm 5 mps 731 mmHg 94%
    06:00 +13°C° 0.1 mm 4 mps 731 mmHg 94%
    07:00 +13°C° 0.1 mm 4 mps 732 mmHg 94%
    08:00 +14°C° 0.2 mm 4 mps 732 mmHg 92%
    09:00 +15°C° 0.2 mm 4 mps 732 mmHg 90%
    10:00 +16°C° 0.2 mm 3 mps 733 mmHg 88%
    11:00 +18°C° 0.7 mm 3 mps 733 mmHg 84%
    12:00 +19°C° 0.7 mm 3 mps 733 mmHg 79%
    13:00 +20°C° 0.7 mm 3 mps 733 mmHg 75%
    14:00 +20°C° 1 mm 4 mps 733 mmHg 77%
    15:00 +19°C° 1 mm 4 mps 733 mmHg 78%
    16:00 +19°C° 1 mm 4 mps 733 mmHg 80%
    17:00 +18°C° 0.5 mm 4 mps 733 mmHg 84%
    18:00 +17°C° 0.5 mm 4 mps 733 mmHg 88%
    19:00 +16°C° 0.5 mm 3 mps 733 mmHg 92%
    20:00 +14°C° 0.1 mm 3 mps 733 mmHg 94%
    21:00 +14°C° 0.1 mm 3 mps 733 mmHg 96%
    22:00 +14°C° 0.1 mm 2 mps 733 mmHg 97%
    23:00 +13°C° 0.4 mm 3 mps 733 mmHg 97%

    23 May, Thursday

    Time Temperature Precipitation Wind Pressure Humidity
    00:00 +13°C° 0.4 mm 3 mps 733 mmHg 97%
    01:00 +14°C° 0.4 mm 4 mps 733 mmHg 97%
    02:00 +14°C° 0.2 mm 4 mps 734 mmHg 97%
    03:00 +14°C° 0.2 mm 4 mps 734 mmHg 97%
    04:00 +14°C° 0.2 mm 4 mps 734 mmHg 96%
    05:00 +14°C° 0.2 mm 4 mps 734 mmHg 95%
    06:00 +14°C° 0.2 mm 5 mps 735 mmHg 95%
    07:00 +14°C° 0.2 mm 5 mps 735 mmHg 94%
    08:00 +14°C° 0.6 mm 5 mps 736 mmHg 93%
    09:00 +15°C° 0.6 mm 6 mps 736 mmHg 92%
    10:00 +15°C° 0.6 mm 7 mps 737 mmHg 91%
    11:00 +14°C° 0.4 mm 7 mps 737 mmHg 91%
    12:00 +11°C° 0.4 mm 7 mps 737 mmHg 91%
    13:00 +10°C° 0.4 mm 8 mps 737 mmHg 92%
    14:00 +10°C° 0.1 mm 8 mps 738 mmHg 91%
    15:00 +10°C° 0.1 mm 8 mps 738 mmHg 90%
    16:00 +9°C° 0.1 mm 7 mps 738 mmHg 90%
    17:00 +9°C° 0 mm 7 mps 738 mmHg 88%
    18:00 +9°C° 0 mm 6 mps 739 mmHg 86%
    19:00 +9°C° 0 mm 5 mps 739 mmHg 83%
    20:00 +9°C° 0 mm 5 mps 739 mmHg 83%
    21:00 +9°C° 0 mm 5 mps 740 mmHg 83%
    22:00 +10°C° 0 mm 4 mps 740 mmHg 82%
    23:00 +10°C° 0 mm 4 mps 740 mmHg 86%

    24 May, Friday

    Time Temperature Precipitation Wind Pressure Humidity
    00:00 +10°C° 0 mm 4 mps 740 mmHg 89%
    01:00 +9°C° 0 mm 3 mps 740 mmHg 93%
    02:00 +8°C° 0 mm 3 mps 740 mmHg 93%
    03:00 +8°C° 0 mm 3 mps 740 mmHg 94%
    04:00 +7°C° 0 mm 3 mps 740 mmHg 94%
    05:00 +8°C° 0 mm 3 mps 740 mmHg 88%
    06:00 +10°C° 0 mm 3 mps 740 mmHg 82%
    07:00 +11°C° 0 mm 3 mps 740 mmHg 76%
    08:00 +12°C° 0 mm 4 mps 740 mmHg 70%
    09:00 +14°C° 0 mm 4 mps 740 mmHg 64%
    10:00 +15°C° 0 mm 4 mps 739 mmHg 57%
    11:00 +17°C° 0 mm 4 mps 739 mmHg 56%
    12:00 +18°C° 0 mm 4 mps 739 mmHg 55%
    13:00 +19°C° 0 mm 4 mps 738 mmHg 54%
    14:00 +19°C° 0 mm 4 mps 738 mmHg 56%
    15:00 +18°C° 0 mm 4 mps 738 mmHg 58%
    16:00 +18°C° 0 mm 3 mps 737 mmHg 59%
    17:00 +17°C° 0 mm 3 mps 737 mmHg 65%
    18:00 +16°C° 0 mm 2 mps 737 mmHg 71%
    19:00 +15°C° 0 mm 1 mps 737 mmHg 76%
    20:00 +14°C° 0 mm 1 mps 737 mmHg 79%
    21:00 +13°C° 0 mm 1 mps 737 mmHg 82%
    22:00 +12°C° 0 mm 1 mps 737 mmHg 85%
    23:00 +11°C° 0 mm 1 mps 737 mmHg 86%

    25 May, Saturday

    Time Temperature Precipitation Wind Pressure Humidity
    00:00 +11°C° 0 mm 1 mps 737 mmHg 86%
    01:00 +11°C° 0 mm 1 mps 737 mmHg 87%
    02:00 +11°C° 0 mm 1 mps 737 mmHg 88%
    03:00 +10°C° 0 mm 1 mps 737 mmHg 88%
    04:00 +10°C° 0 mm 1 mps 736 mmHg 89%
    05:00 +12°C° 0 mm 1 mps 736 mmHg 82%
    06:00 +14°C° 0 mm 1 mps 737 mmHg 76%
    07:00 +16°C° 0 mm 1 mps 737 mmHg 70%
    08:00 +17°C° 0 mm 2 mps 737 mmHg 65%
    09:00 +18°C° 0 mm 2 mps 737 mmHg 61%
    10:00 +19°C° 0 mm 2 mps 737 mmHg 56%
    11:00 +20°C° 0 mm 2 mps 737 mmHg 54%
    12:00 +21°C° 0 mm 2 mps 737 mmHg 53%
    13:00 +21°C° 0 mm 3 mps 737 mmHg 51%
    14:00 +21°C° 0 mm 3 mps 736 mmHg 53%
    15:00 +21°C° 0 mm 3 mps 736 mmHg 55%
    16:00 +21°C° 0 mm 3 mps 736 mmHg 56%
    17:00 +20°C° 0.1 mm 3 mps 736 mmHg 64%
    18:00 +18°C° 0.1 mm 2 mps 737 mmHg 72%
    19:00 +17°C° 0.1 mm 2 mps 737 mmHg 80%
    20:00 +16°C° 0 mm 2 mps 737 mmHg 84%
    21:00 +15°C° 0 mm 2 mps 738 mmHg 88%
    22:00 +14°C° 0 mm 2 mps 738 mmHg 91%
    23:00 +13°C° 0 mm 2 mps 738 mmHg 92%
    Show more